Weather History for KABR - January, 2014

Change the Weather History Date:

Saturday, January 4, 2014

  Actual Average Record
Temperature  
Mean Temperature 4 °F 12 °F  
Max Temperature 17 °F 22 °F 54 °F (2012)
Min Temperature -9 °F 2 °F -34 °F (1912)
Degree Days  
Heating Degree Days 61 53  
Month to date heating degree days 261 212  
Since 1 July heating degree days 4057 3703  
Cooling Degree Days 0 0  
Month to date cooling degree days 0 0  
Year to date cooling degree days 0 0  
Moisture  
Dew Point -3 °F    
Average Humidity 70    
Maximum Humidity 80    
Minimum Humidity 59    
Precipitation  
Precipitation T in 0.01 in 2.00 in (1897)
Month to date precipitation 0.01 0.07  
Year to date precipitation 0.01 0.07  
Snow  
Snow T in - - ()
Month to date snowfall 0.6  
Since 1 July snowfall 16.1  
Snow Depth 4.00 in    
Sea Level Pressure  
Sea Level Pressure 30.11 in    
Wind  
Wind Speed 17 mph (NNW)    
Max Wind Speed 39 mph    
Max Gust Speed 46 mph    
Visibility 9 miles    
Events Snow    
T = Trace of Precipitation, MM = Missing Value Source: NWS Daily Summary

Daily Weather History Graph

Daily Weather History Graph

Search for Another Location

Airport or City:

Trip Planner

Search our weather history database for the weather conditions in past years. The results will help you decide how hot, cold, wet, or windy it might be!

Date:

Astronomy

Jan. 04, 2014 Rise Set
Actual Time 8:13 AM CST 5:04 PM CST
Civil Twilight 7:39 AM CST 5:38 PM CST
Nautical Twilight 7:02 AM CST 6:15 PM CST
Astronomical Twilight 6:26 AM CST 6:51 PM CST
Moon 10:07 AM CST (1/4) 9:39 PM CST (1/4)
Length of Visible Light 9h 58m
Length of Day
8h 50m
Waxing Crescent, 15% of the Moon is Illuminated
Jan 4
Waxing Crescent
Jan 7
First Quarter
Jan 15
Full
Jan 23
Last Quarter
Jan 30
New

Hourly Weather History & Observations

Time (CST) Temp. Windchill Dew Point Humidity Pressure Visibility Wind Dir Wind Speed Gust Speed Precip Events Conditions
12:16 AM 15.8 °F -5.5 °F 8.6 °F 73% 29.63 in 10.0 mi North 34.5 mph 44.9 mph N/A   Overcast
12:28 AM 14.0 °F -7.1 °F 8.6 °F 79% 29.64 in 10.0 mi North 31.1 mph 40.3 mph N/A   Overcast
12:51 AM 12.2 °F -8.9 °F 6.8 °F 79% 29.66 in 10.0 mi NNW 28.8 mph 38.0 mph N/A   Overcast
12:53 AM 12.9 °F -7.6 °F 6.1 °F 74% 29.73 in 10.0 mi North 27.6 mph 38.0 mph N/A   Overcast
1:18 AM 12.2 °F -9.9 °F 5.0 °F 73% 29.70 in 10.0 mi NNW 32.2 mph 39.1 mph N/A   Scattered Clouds
1:38 AM 12.2 °F -8.2 °F 6.8 °F 79% 29.72 in 3.0 mi North 26.5 mph 39.1 mph 0.00 in Snow Light Snow
1:53 AM 12.0 °F -9.2 °F 7.0 °F 80% 29.81 in 4.0 mi North 28.8 mph 36.8 mph 0.00 in Snow Light Snow
2:53 AM 12.0 °F -8.5 °F 6.1 °F 77% 29.90 in 5.0 mi North 26.5 mph 34.5 mph 0.00 in Snow Light Snow
3:53 AM 12.0 °F -6.0 °F 6.1 °F 77% 29.94 in 10.0 mi North 19.6 mph - 0.00 in   Overcast
4:53 AM 12.0 °F -1.3 °F 7.0 °F 80% 29.97 in 9.0 mi NNW 10.4 mph - N/A   Overcast
5:53 AM 12.9 °F -5.7 °F 5.0 °F 71% 30.00 in 10.0 mi North 21.9 mph - N/A   Overcast
6:53 AM 12.0 °F -7.3 °F 3.9 °F 70% 30.05 in 10.0 mi North 23.0 mph 29.9 mph N/A   Mostly Cloudy
7:12 AM 10.4 °F -9.5 °F 1.4 °F 67% 29.99 in 10.0 mi North 23.0 mph 28.8 mph N/A   Partly Cloudy
7:53 AM 8.1 °F -10.2 °F 1.0 °F 73% 30.08 in 10.0 mi North 17.3 mph - N/A   Clear
8:53 AM 6.1 °F -14.8 °F -2.0 °F 69% 30.11 in 10.0 mi NNW 21.9 mph - N/A   Partly Cloudy
9:53 AM 3.9 °F -15.6 °F -2.9 °F 73% 30.14 in 10.0 mi NNW 17.3 mph - N/A   Clear
10:53 AM 3.0 °F -17.3 °F -5.1 °F 69% 30.18 in 10.0 mi NNW 18.4 mph - N/A   Clear
11:53 AM 3.0 °F -17.8 °F -5.1 °F 69% 30.22 in 10.0 mi NNW 19.6 mph - N/A   Clear
12:53 PM 3.9 °F -15.0 °F -5.1 °F 66% 30.23 in 10.0 mi NNW 16.1 mph - N/A   Clear
1:53 PM 3.9 °F -12.2 °F -5.1 °F 66% 30.24 in 10.0 mi NW 11.5 mph - N/A   Clear
2:53 PM 3.9 °F -14.3 °F -6.0 °F 64% 30.28 in 10.0 mi NW 15.0 mph - N/A   Clear
3:53 PM 3.0 °F -16.1 °F -7.1 °F 63% 30.31 in 10.0 mi NW 16.1 mph - N/A   Clear
4:53 PM -0.0 °F -16.3 °F -9.0 °F 66% 30.33 in 10.0 mi NW 10.4 mph - N/A   Partly Cloudy
5:53 PM -0.0 °F -20.7 °F -9.9 °F 63% 30.35 in 10.0 mi NNW 17.3 mph - N/A   Overcast
6:53 PM -0.9 °F -21.9 °F -11.0 °F 62% 30.38 in 10.0 mi NNW 17.3 mph - N/A   Mostly Cloudy
7:53 PM -4.0 °F -21.2 °F -11.9 °F 69% 30.41 in 10.0 mi NW 10.4 mph - N/A   Clear
8:53 PM -5.1 °F -21.5 °F -14.1 °F 65% 30.43 in 10.0 mi NW 9.2 mph - N/A   Clear
9:53 PM -7.1 °F -22.8 °F -16.1 °F 65% 30.45 in 10.0 mi NW 8.1 mph - N/A   Clear
10:53 PM -8.0 °F -22.5 °F -16.1 °F 68% 30.47 in 10.0 mi NW 6.9 mph - N/A   Clear
11:53 PM -9.0 °F -22.3 °F -16.1 °F 71% 30.46 in 10.0 mi WNW 5.8 mph - N/A   Clear